Total_Precipitation_Accumulation
0.08 0.13 0.19 0.27 0.31 0.32 0.38 0.50 0.61 0.75 0.80 0.86 0.85 0.83 0.89 0.89 0.83 0.76 0.79 0.88 0.82 0.72 0.71 0.73 0.73 0.70 0.68 0.63 0.58 0.54 0.52 0.49 0.45 0.46 0.46 0.41 0.37 0.36 0.30 0.24 0.23 0.22 0.21
0.09 0.14 0.19 0.25 0.29 0.33 0.37 0.48 0.62 0.73 0.77 0.78 0.84 0.82 0.85 0.86 0.87 0.83 0.83 0.90 0.95 0.87 0.77 0.75 0.75 0.74 0.68 0.64 0.59 0.58 0.61 0.59 0.52 0.49 0.53 0.53 0.50 0.42 0.34 0.29 0.24 0.23 0.24
0.11 0.15 0.19 0.22 0.25 0.30 0.34 0.40 0.56 0.74 0.80 0.78 0.88 0.95 1.02 1.06 1.04 0.97 0.89 0.90 0.93 0.91 0.84 0.76 0.70 0.73 0.71 0.68 0.62 0.58 0.59 0.62 0.57 0.48 0.57 0.68 0.58 0.40 0.33 0.30 0.27 0.24 0.23
0.13 0.18 0.21 0.25 0.27 0.32 0.36 0.38 0.47 0.64 0.83 0.86 0.88 0.94 0.99 1.01 1.05 0.98 0.90 0.88 0.92 0.95 0.89 0.87 0.79 0.72 0.70 0.66 0.63 0.61 0.61 0.65 0.66 0.56 0.50 0.51 0.53 0.56 0.45 0.33 0.32 0.32 0.29
0.15 0.20 0.24 0.29 0.32 0.39 0.46 0.45 0.50 0.58 0.78 0.83 0.83 0.88 0.92 0.94 1.02 1.04 0.97 0.94 0.96 1.00 1.00 0.97 0.92 0.86 0.77 0.68 0.63 0.63 0.66 0.68 0.68 0.62 0.54 0.48 0.41 0.44 0.56 0.46 0.39 0.43 0.41
0.17 0.21 0.27 0.34 0.39 0.44 0.55 0.55 0.58 0.58 0.69 0.86 0.84 0.81 0.85 0.88 0.94 0.99 1.05 1.04 1.02 1.02 1.02 1.02 0.97 0.91 0.90 0.82 0.72 0.67 0.68 0.67 0.66 0.66 0.62 0.61 0.60 0.50 0.53 0.51 0.40 0.40 0.40
0.19 0.23 0.30 0.39 0.40 0.43 0.57 0.59 0.60 0.62 0.63 0.78 0.85 0.79 0.79 0.81 0.82 0.90 0.93 0.99 1.05 1.04 1.03 1.04 1.01 0.95 0.90 0.88 0.83 0.78 0.76 0.74 0.75 0.75 0.73 0.68 0.63 0.59 0.64 0.69 0.56 0.46 0.38
0.18 0.22 0.27 0.34 0.39 0.39 0.50 0.60 0.63 0.65 0.64 0.72 0.85 0.87 0.85 0.86 0.81 0.85 0.91 0.92 0.94 0.95 0.91 0.94 0.94 0.91 0.85 0.84 0.85 0.85 0.82 0.83 0.85 0.83 0.83 0.82 0.72 0.70 0.77 0.85 0.93 0.81 0.53
0.21 0.23 0.26 0.29 0.32 0.38 0.45 0.52 0.64 0.70 0.70 0.70 0.83 0.99 1.04 0.96 0.86 0.82 0.87 0.88 0.85 0.86 0.88 0.87 0.88 0.83 0.79 0.77 0.77 0.79 0.78 0.82 0.85 0.87 0.90 0.91 0.83 0.81 0.82 0.87 1.04 1.23 1.02
0.25 0.28 0.28 0.31 0.32 0.34 0.41 0.46 0.58 0.69 0.74 0.71 0.78 0.93 1.15 1.17 1.02 0.96 0.86 0.83 0.82 0.82 0.83 0.86 0.85 0.85 0.79 0.77 0.77 0.74 0.71 0.77 0.80 0.83 0.88 0.90 0.87 0.83 0.82 0.88 0.91 1.04 1.17
0.20 0.24 0.27 0.34 0.37 0.36 0.40 0.45 0.51 0.61 0.69 0.67 0.72 0.82 0.99 1.21 1.23 1.12 1.00 0.86 0.82 0.79 0.78 0.80 0.82 0.82 0.83 0.82 0.86 0.81 0.73 0.75 0.78 0.81 0.84 0.84 0.85 0.88 0.84 0.87 0.90 0.90 0.96
0.17 0.20 0.24 0.32 0.37 0.38 0.40 0.43 0.48 0.56 0.63 0.64 0.68 0.77 0.85 1.02 1.24 1.18 1.05 0.93 0.86 0.82 0.82 0.81 0.83 0.82 0.83 0.85 0.89 0.86 0.77 0.76 0.77 0.79 0.79 0.79 0.79 0.83 0.79 0.80 0.81 0.79 0.75
0.17 0.19 0.25 0.30 0.34 0.40 0.43 0.42 0.45 0.52 0.57 0.64 0.68 0.70 0.78 0.87 0.98 1.13 1.08 0.99 0.92 0.87 0.84 0.84 0.85 0.90 0.91 0.87 0.84 0.86 0.82 0.77 0.77 0.78 0.81 0.79 0.81 0.83 0.77 0.77 0.75 0.68 0.64
0.17 0.22 0.25 0.27 0.32 0.39 0.46 0.45 0.48 0.51 0.50 0.57 0.65 0.64 0.65 0.73 0.78 0.90 1.08 1.09 1.00 0.91 0.83 0.80 0.84 0.94 1.10 1.09 0.97 1.00 0.94 0.83 0.77 0.73 0.72 0.76 0.87 0.88 0.86 0.87 0.76 0.70 0.73
0.16 0.23 0.27 0.27 0.33 0.41 0.50 0.53 0.49 0.45 0.42 0.47 0.55 0.61 0.65 0.72 0.75 0.76 0.87 1.05 1.02 0.88 0.79 0.76 0.79 0.89 1.23 1.58 1.52 1.42 1.19 0.91 0.76 0.68 0.69 0.76 0.89 0.93 1.04 1.13 1.01 0.98 1.07
0.19 0.23 0.28 0.28 0.34 0.41 0.51 0.60 0.53 0.47 0.40 0.43 0.50 0.56 0.65 0.78 0.80 0.75 0.79 0.89 0.97 0.92 0.83 0.77 0.75 0.79 1.06 1.63 1.72 1.44 1.07 0.88 0.77 0.71 0.67 0.69 0.81 0.84 0.91 1.04 1.11 1.18 1.30
0.25 0.26 0.29 0.32 0.38 0.41 0.49 0.57 0.55 0.51 0.43 0.44 0.49 0.54 0.58 0.72 0.79 0.78 0.83 0.84 0.87 0.94 0.95 0.83 0.73 0.70 0.86 1.42 1.53 1.24 0.93 0.79 0.74 0.69 0.67 0.67 0.74 0.81 0.80 0.88 0.91 0.93 1.06
0.26 0.27 0.31 0.37 0.37 0.40 0.42 0.48 0.51 0.49 0.46 0.47 0.53 0.57 0.55 0.60 0.72 0.81 0.82 0.81 0.81 0.83 0.89 0.88 0.79 0.71 0.75 1.22 1.37 1.13 0.88 0.76 0.69 0.63 0.64 0.62 0.65 0.76 0.95 0.95 0.90 0.80 0.83
0.25 0.27 0.31 0.36 0.37 0.36 0.36 0.42 0.48 0.46 0.48 0.53 0.56 0.57 0.52 0.53 0.62 0.71 0.78 0.79 0.79 0.74 0.75 0.80 0.79 0.74 0.71 0.99 1.23 1.08 0.85 0.79 0.71 0.60 0.57 0.58 0.59 0.76 1.02 1.03 0.91 0.75 0.68
0.22 0.26 0.29 0.30 0.33 0.36 0.35 0.40 0.45 0.41 0.45 0.49 0.55 0.52 0.47 0.44 0.45 0.55 0.70 0.77 0.77 0.73 0.71 0.74 0.75 0.69 0.63 0.82 1.06 1.08 0.86 0.77 0.71 0.65 0.58 0.64 0.74 0.88 1.02 0.97 0.94 1.01 0.83
0.19 0.22 0.25 0.27 0.33 0.36 0.33 0.37 0.42 0.41 0.43 0.47 0.52 0.47 0.44 0.44 0.44 0.50 0.63 0.71 0.79 0.81 0.75 0.71 0.72 0.68 0.64 0.73 0.88 1.08 0.92 0.76 0.72 0.72 0.68 0.63 0.80 0.88 0.93 1.00 0.99 1.20 1.13
0.16 0.16 0.19 0.23 0.28 0.31 0.31 0.37 0.43 0.43 0.46 0.47 0.44 0.43 0.45 0.47 0.48 0.51 0.59 0.69 0.78 0.85 0.79 0.71 0.70 0.67 0.64 0.71 0.84 1.00 1.01 0.92 0.76 0.68 0.59 0.62 0.80 0.89 0.97 0.95 1.01 1.13 1.11
0.17 0.17 0.19 0.21 0.26 0.29 0.30 0.37 0.43 0.40 0.43 0.43 0.41 0.40 0.44 0.46 0.48 0.53 0.61 0.69 0.77 0.80 0.79 0.71 0.66 0.64 0.61 0.70 0.87 0.85 0.90 0.95 0.81 0.68 0.75 0.80 0.89 0.91 0.83 0.85 0.94 0.95 0.91
0.18 0.18 0.20 0.22 0.27 0.29 0.29 0.35 0.40 0.37 0.36 0.36 0.40 0.38 0.42 0.47 0.51 0.56 0.61 0.66 0.75 0.81 0.73 0.67 0.63 0.60 0.63 0.79 0.91 0.85 0.84 0.92 0.91 0.86 0.89 0.94 0.92 0.83 0.73 0.74 0.76 0.74 0.81
0.21 0.20 0.21 0.22 0.28 0.31 0.33 0.36 0.35 0.33 0.33 0.33 0.39 0.44 0.46 0.51 0.56 0.59 0.61 0.64 0.66 0.79 0.77 0.66 0.65 0.69 0.78 0.92 1.01 0.98 0.92 0.93 0.95 1.07 1.13 1.04 0.94 0.88 0.76 0.65 0.58 0.61 0.73
0.24 0.22 0.23 0.24 0.29 0.33 0.39 0.38 0.32 0.30 0.32 0.36 0.40 0.47 0.52 0.53 0.54 0.54 0.57 0.64 0.66 0.70 0.69 0.64 0.64 0.63 0.77 0.91 0.95 1.00 1.00 1.03 1.10 1.18 1.13 0.92 0.78 0.74 0.69 0.65 0.60 0.56 0.58